Location: Newark
(30.1000°N, 109.4667°E)
Time: 14:13:57
(UTC+00:00)

Courier 1B Rocket - Pass Details

Date: 22 February 2020
Orbit: 920 x 1202 km, 28.2° (Epoch: 09 April)

Event Time Altitude Azimuth Distance (km) Brightness Sun altitude
Exits shadow 20:59:28 52° 182° (S) 1,275 5.4 -30.1°
Drops below altitude 10° 21:05:56 10° 122° (ESE) 2,939 8.1 -28.7°
Sets 21:08:51 0° 117° (ESE) 3,939 9.0 -28.1°
